Terminal Aerodrome Forecast
Issued by NWS

Home | Current Version | Previous Version | Text Only | Print | Product List | Glossary On
Versions: 1 2 3 4 5 6 7 8 9 10 11 12 13 14 15
000
FTUS46 KSTO 291138
TAFSAC
TAF
KSAC 291138Z 2912/3012 19010KT P6SM SKC
     FM292300 21010G17KT P6SM SKC
     FM300900 18007KT P6SM SKC=

USA.gov is the U.S. government's official web portal to all federal, state and local government web resources and services.